Regional Weather Roundup
Issued by NWS Newport/Morehead, NC

Current Version | Previous Version | Graphics & Text | Print | Product List | Glossary Off
Versions: 1 2 3 4 5 6 7 8 9 10 11 12 13 14 15 16 17 18 19 20 21 22 23 24 25 26 27 28 29 30 31 32 33 34 35 36 37 38 39 40 41 42 43 44 45 46 47 48 49 50

000
ASUS42 KMHX 281524
RWRMHX
WEATHER ROUNDUP FOR EASTERN NORTH CAROLINA
NATIONAL WEATHER SERVICE NEWPORT/MOREHEAD CITY NC
1100 AM EDT TUE APR 28 2015

NOTE: "FAIR" INDICATES FEW OR NO CLOUDS BELOW 12,000 FEET
WITH NO SIGNIFICANT WEATHER AND/OR OBSTRUCTIONS TO VISIBILITY

NCZ015>017-031-032-045>047-102-103-281600-
NORTH COAST

CITY           SKY/WX    TMP DP  RH WIND       PRES   REMARKS
EDENTON        SUNNY     59  42  53 N6        29.93F
ELIZABETH CITY SUNNY     58  41  53 NW7       29.93R
KITTY HAWK     MOSUNNY   56  41  58 NW8       29.91R
MANTEO         SUNNY     56  42  60 NW7       29.94R

$$

NCZ045>047-081-094-103-104-281600-
CENTRAL COAST

CITY           SKY/WX    TMP DP  RH WIND       PRES   REMARKS
FRISCO         SUNNY     56  40  55 VRB5      29.92S
SWANQUARTER      N/A     61 N/A N/A NW14G20   29.88F

$$

NCZ095-097-098-100-101-281600-
SOUTHERN COAST

CITY           SKY/WX    TMP DP  RH WIND       PRES   REMARKS
BEAUFORT       MOSUNNY   59  38  45 N16       29.94S
CEDAR ISLAND     N/A     57 N/A N/A NW14      29.97S
JACKSONVILLE   MOSUNNY   59  35  40 N16G22    29.96S
PINEY ISLAND   SUNNY    N/A N/A N/A N12       29.93F
WILMINGTON     PTSUNNY   59  36  42 N12       29.98R


$$

NCZ011>013-027>030-043-044-078>080-089-090>093-098-281600-
COASTAL PLAIN

CITY           SKY/WX    TMP DP  RH WIND       PRES   REMARKS
AHOSKIE        SUNNY     57  39  52 W5        29.96S
CLINTON        SUNNY     58  39  49 N8        29.99S
ELIZABETHTOWN  MOSUNNY   57  36  45 W3        29.99S
GOLDSBORO      SUNNY     57  35  43 N8G17     29.95F
GREENVILLE     SUNNY     57  37  47 N8        29.99R
HAVELOCK       MOSUNNY   59  37  44 N12G23    29.96S
KENANSVILLE    MOSUNNY   57  35  43 NW7       29.99R
KINSTON        SUNNY     59  37  44 N12       29.97F
NEW BERN       SUNNY     59  37  44 N12       29.96F
RICHLANDS      MOSUNNY   59  36  41 N10G16    29.97S
ROCKY MOUNT    SUNNY     59  38  45 NW6G16    29.97F
WASHINGTON     SUNNY     58  38  47 N13       29.95F
WHITEVILLE     PTSUNNY   58  38  46 N5        29.98S

$$

AMZ130-135-150-152-154-156-158-170-250-252-270-ANZ085-086-088-633-658-670-281600-
MARINE OBSERVATIONS

STATION/POSITION TIME  TEMP    WIND        PRES    WAVE   SWELL
                       AIR SEA DIR/SP/G            HT/PER HT/PER
                 (UTC) (F)     (DEG/KT/KT) (MB)    (FT/S) (FT/S)
CHESAPEAKE LIGHT 1500   53     330/ 14/ 15 1013.2
64 E VA BEACH    1450   53 57  320/ 16/ 19 1011.4    5/ 6
DUCK             1500      55  340/ 10/ 15 1011.9
2 E DUCK         1411      54                N/A     2/ 6
OREGON INLET     1500   54 58  320/  8/ 13 1012.8
13E OREGON INLT  NOT AVBL
HATTERAS CG      1400   53 60  340/ 13/ 17 1012.8
DIAMOND BUOY     1450   54 75  350/ 16/ 19 1013.2    4/ 7   2/ 9
CAPE LOOKOUT     1500   57     340/ 11/ 14 1013.6
BEAUFORT LAB     1400   54 61  360/ 10/ 15 1013.0
27 SE WRIGHTSVLE 1500   54 72   20/ 14/ 17   N/A
5 SE WRIGHTSVLE  NOT AVBL
225 S CAPE HAT   1450   67 70  360/ 16/ 17 1012.6    5/ 7   2/ 8
41 SE CHARLESTON 1450   65 72   40/ 16/ 19 1014.4    5/ 6   2/13

$$


USA.gov is the U.S. government's official web portal to all federal, state and local government web resources and services.